Syracuse, NY

12:58 PM EDT on March 29, 2017 (GMT -0400)
Syracuse Hancock International

Weather History for KSYR - March, 2014

Change the Weather History Date:

Monday, March 31, 2014

  Actual Average Record
Temperature  
Mean Temperature 37 °F 40 °F  
Max Temperature 45 °F 50 °F 85 °F (1998)
Min Temperature 28 °F 31 °F 9 °F (1923)
Degree Days  
Heating Degree Days 28 25  
Month to date heating degree days 1211 957  
Since 1 July heating degree days 6303 5788  
Cooling Degree Days 0 0  
Month to date cooling degree days 0 0  
Year to date cooling degree days 0 0  
Moisture  
Dew Point 26 °F    
Average Humidity 67    
Maximum Humidity 85    
Minimum Humidity 49    
Precipitation  
Precipitation 0.00 in 0.10 in 1.16 in (1974)
Month to date precipitation 3.48 2.95  
Year to date precipitation 9.03 7.52  
Snow  
Snow 0.00 in 0.30 in 9.30 in (1974)
Month to date snowfall 21.7 18.0  
Since 1 July snowfall 131.6 119.9  
Snow Depth 0.00 in    
Sea Level Pressure  
Sea Level Pressure 30.13 in    
Wind  
Wind Speed 10 mph (NNW)    
Max Wind Speed 23 mph    
Max Gust Speed 29 mph    
Visibility 10 miles    
Events      
T = Trace of Precipitation, MM = Missing Value Source: NWS Daily Summary

Daily Weather History Graph

Daily Weather History Graph

Search for Another Location

Airport or City:

Trip Planner

Search our weather history database for the weather conditions in past years. The results will help you decide how hot, cold, wet, or windy it might be!

Date:

Astronomy

Mar. 31, 2014 Rise Set
Actual Time 6:48 AM EDT 7:29 PM EDT
Civil Twilight 6:19 AM EDT 7:58 PM EDT
Nautical Twilight 5:45 AM EDT 8:32 PM EDT
Astronomical Twilight 5:10 AM EDT 9:07 PM EDT
Moon 7:08 AM EDT (3/31) 8:48 PM EDT (3/31)
Length of Visible Light 13h 38m
Length of Day
12h 41m
New Moon, 1% of the Moon is Illuminated
Mar 31
New Moon
Apr 7
First Quarter
Apr 15
Full
Apr 22
Last Quarter
Apr 29
New

Hourly Weather History & Observations

Time (EDT) Temp. Windchill Dew Point Humidity Pressure Visibility Wind Dir Wind Speed Gust Speed Precip Events Conditions
12:54 AM 32.0 °F 22.5 °F 26.1 °F 79% 30.00 in 10.0 mi NNW 12.7 mph - N/A   Overcast
1:54 AM 32.0 °F 20.5 °F 25.0 °F 75% 30.01 in 10.0 mi NNW 18.4 mph 25.3 mph N/A   Overcast
2:54 AM 30.9 °F 22.2 °F 25.0 °F 79% 30.02 in 10.0 mi NNW 10.4 mph 21.9 mph N/A   Overcast
3:54 AM 30.0 °F 21.1 °F 24.1 °F 79% 30.03 in 10.0 mi NNW 10.4 mph - N/A   Overcast
4:54 AM 30.0 °F 22.4 °F 25.0 °F 82% 30.06 in 10.0 mi NNW 8.1 mph - N/A   Overcast
5:54 AM 30.9 °F 20.7 °F 26.1 °F 82% 30.09 in 10.0 mi NNW 13.8 mph - N/A   Overcast
6:54 AM 30.9 °F 22.8 °F 25.0 °F 79% 30.10 in 10.0 mi NNW 9.2 mph - N/A   Overcast
7:54 AM 32.0 °F 23.0 °F 26.1 °F 79% 30.13 in 10.0 mi NW 11.5 mph - N/A   Overcast
8:54 AM 33.1 °F 24.9 °F 27.0 °F 78% 30.13 in 10.0 mi NNW 10.4 mph 19.6 mph N/A   Overcast
9:54 AM 35.1 °F 25.5 °F 27.0 °F 72% 30.15 in 10.0 mi NNW 15.0 mph - N/A   Mostly Cloudy
10:54 AM 37.0 °F 29.3 °F 27.0 °F 67% 30.15 in 10.0 mi NNW 11.5 mph 19.6 mph N/A   Mostly Cloudy
11:46 AM 41.0 °F 33.9 °F 28.4 °F 61% 30.15 in 10.0 mi NNW 12.7 mph - N/A   Unknown
11:54 AM 41.0 °F 32.8 °F 28.0 °F 60% 30.15 in 10.0 mi NNW 16.1 mph 19.6 mph N/A   Scattered Clouds
12:54 PM 41.0 °F 33.9 °F 28.0 °F 60% 30.15 in 10.0 mi NW 12.7 mph 20.7 mph N/A   Partly Cloudy
1:54 PM 43.0 °F 37.2 °F 28.0 °F 56% 30.15 in 10.0 mi NW 10.4 mph 19.6 mph N/A   Partly Cloudy
2:54 PM 44.1 °F 37.1 °F 28.0 °F 53% 30.15 in 10.0 mi NNW 15.0 mph - N/A   Partly Cloudy
3:54 PM 43.0 °F 36.0 °F 27.0 °F 53% 30.15 in 10.0 mi NNW 13.8 mph - N/A   Partly Cloudy
4:54 PM 44.1 °F 37.4 °F 26.1 °F 49% 30.16 in 10.0 mi NW 13.8 mph - N/A   Scattered Clouds
5:54 PM 43.0 °F 36.8 °F 26.1 °F 51% 30.18 in 10.0 mi NNW 11.5 mph - N/A   Partly Cloudy
6:54 PM 39.9 °F 33.4 °F 26.1 °F 58% 30.19 in 10.0 mi NNW 10.4 mph - N/A   Partly Cloudy
7:54 PM 37.0 °F 31.0 °F 26.1 °F 65% 30.20 in 10.0 mi NW 8.1 mph - N/A   Partly Cloudy
8:54 PM 35.1 °F 31.0 °F 26.1 °F 70% 30.21 in 10.0 mi NNW 4.6 mph - N/A   Partly Cloudy
9:54 PM 33.1 °F 27.7 °F 25.0 °F 72% 30.21 in 10.0 mi NNW 5.8 mph - N/A   Partly Cloudy
10:54 PM 32.0 °F - 26.1 °F 79% 30.21 in 10.0 mi Calm Calm - N/A   Partly Cloudy
11:54 PM 30.0 °F 26.5 °F 24.1 °F 79% 30.19 in 10.0 mi SSW 3.5 mph - N/A   Partly Cloudy